Regional Weather Roundup
Issued by NWS

Home | Current Version | Previous Version | Text Only | Print | Product List | Glossary Off
Versions: 1 2 3 4 5 6 7 8 9 10 11 12 13 14 15 16 17 18 19 20 21 22 23 24 25 26 27 28 29 30 31 32 33 34 35 36 37 38 39 40 41 42 43 44 45 46 47 48 49 50

000
ASUS43 KFSD 181002
RWRSD

WEATHER ROUNDUP FOR SOUTH DAKOTA
NATIONAL WEATHER SERVICE SIOUX FALLS SD
500 AM CDT FRI APR 18 2014

NOTE: "FAIR" INDICATES FEW OR NO CLOUDS BELOW 12,000 FEET WITH NO
SIGNIFICANT WEATHER AND/OR OBSTRUCTIONS TO VISIBILITY.


SDZ001>005-009-010-012>017-181100-
NORTHWEST AND NORTH CENTRAL SOUTH DAKOTA

CITY           SKY/WX    TMP DP  RH WIND       PRES   REMARKS
FAITH            N/A     33  25  72 SE17      29.90F WCI  22
MOBRIDGE       CLOUDY    36  25  64 SE17      30.00F
$$

SDZ012>016-024>037-041>051-057-063-072>074-181100-
SOUTHWEST AND SOUTH CENTRAL SOUTH DAKOTA

CITY           SKY/WX    TMP DP  RH WIND       PRES   REMARKS
RAPID CTY ARPT CLEAR     33  31  92 CALM      29.85F
PIERRE         PTCLDY    36  26  67 E12       29.99F
CUSTER         PTCLDY    34  31  88 CALM      29.87F
ELLSWORTH AFB  CLEAR     37  33  86 S6        29.84F
PHILIP         CLEAR     35  29  78 E10       29.91F WCI  27
PINE RIDGE     PTCLDY    44  37  76 SW12      29.88F
WINNER         CLOUDY    44  29  55 S22G31    29.99F
$$

SDZ004>011-016>023-039-040-181100-
NORTHEAST SOUTH DAKOTA

CITY           SKY/WX    TMP DP  RH WIND       PRES   REMARKS
ABERDEEN       CLOUDY    35  19  52 E13       30.16F WCI  26
WATERTOWN      CLOUDY    33  12  41 SE10      30.20F WCI  25
SISSETON         N/A     32  26  78 S7        30.25S WCI  26
$$

SDZ017-020-022-023-036>040-048>070-181100-
SOUTHEAST SOUTH DAKOTA

CITY           SKY/WX    TMP DP  RH WIND       PRES   REMARKS
SIOUX FALLS    PTCLDY    33  28  81 SE12      30.23F WCI  24
HURON          PTCLDY    34  27  75 SE15      30.14F WCI  24
CHAMBERLAIN      N/A     36  25  64 SE16      30.05F
MITCHELL       PTCLDY    34  28  79 SE17      30.17F WCI  23
YANKTON        CLEAR     30  25  80 E7        30.21S WCI  23
$$

ABBREVIATIONS USED IN REMARKS
   TC - TEMPERATURE IN CELSIUS
  WCI - WIND CHILL INDEX
   HX - HEAT INDEX
  VSB - VISIBILITY




USA.gov is the U.S. government's official web portal to all federal, state and local government web resources and services.